DW3979 Weather Reports


Display with metric or nautical units.
time (UTC)temp
F
wind
direction
speed
MPH
gust
MPH
rain 1hr
in
rain 24hr
in
rain mn
in
humidity
%
barometer
mb
20260904013330 80 155 1.0 4.0 0.00 0.00 0.00 42 1016.6
20260904012828 80 171 1.0 4.0 0.00 0.00 0.00 41 1016.5
20260904002312 84 180 2.0 6.0 0.00 0.00 0.00 37 1016.6
20260904001812 84 171 3.0 9.0 0.00 0.00 0.00 37 1016.6
20260904001310 84 191 3.0 9.0 0.00 0.00 0.00 38 1016.6
20260904000810 83 181 2.0 7.0 0.00 0.00 0.00 38 1016.6
20260904000304 83 128 2.0 6.0 0.00 0.00 0.00 38 1016.6
20260903235300 84 148 4.0 11.0 0.00 0.00 0.00 37 1016.6
20260903234758 85 150 4.0 11.0 0.00 0.00 0.00 37 1016.6
20260903234259 85 145 3.0 8.0 0.00 0.00 0.00 36 1016.6
20260903233759 86 107 3.0 7.0 0.00 0.00 0.00 36 1016.5
20260903233258 86 153 3.0 10.0 0.00 0.00 0.00 37 1016.6
20260903232759 86 165 3.0 10.0 0.00 0.00 0.00 37 1016.6
20260903232258 86 156 4.0 11.0 0.00 0.00 0.00 36 1016.6
20260903231757 86 144 5.0 11.0 0.00 0.00 0.00 36 1016.7
20260903231257 86 161 4.0 10.0 0.00 0.00 0.00 35 1016.7
20260903230257 86 151 4.0 9.0 0.00 0.00 0.00 36 1016.7
20260903225256 86 165 5.0 11.0 0.00 0.00 0.00 36 1016.9
20260903224755 87 140 4.0 8.0 0.00 0.00 0.00 35 1016.9
20260903224254 87 160 3.0 8.0 0.00 0.00 0.00 36 1016.9
20260903223255 87 146 3.0 9.0 0.00 0.00 0.00 35 1016.9
20260903222752 87 157 3.0 9.0 0.00 0.00 0.00 36 1017.2
20260903222250 87 139 3.0 11.0 0.00 0.00 0.00 37 1017.3
20260903221748 87 176 4.0 11.0 0.00 0.00 0.00 38 1017.3
20260903221248 86 162 4.0 9.0 0.00 0.00 0.00 37 1017.4
20260903220748 86 121 4.0 9.0 0.00 0.00 0.00 37 1017.3
20260903215248 85 138 4.0 9.0 0.00 0.00 0.00 38 1017.6
20260903214748 86 165 4.0 9.0 0.00 0.00 0.00 36 1017.7
20260903214248 86 163 4.0 12.0 0.00 0.00 0.00 38 1017.7
20260903213748 85 151 4.0 12.0 0.00 0.00 0.00 39 1017.6
20260903213248 86 175 4.0 9.0 0.00 0.00 0.00 36 1017.7
20260903212749 87 176 3.0 9.0 0.00 0.00 0.00 36 1017.7
20260903211748 88 163 3.0 10.0 0.00 0.00 0.00 35 1018.0
20260903211247 88 162 3.0 8.0 0.00 0.00 0.00 35 1018.1
20260903210745 87 187 4.0 8.0 0.00 0.00 0.00 36 1018.1
20260903210242 87 121 3.0 9.0 0.00 0.00 0.00 37 1018.0
20260903205742 86 146 4.0 10.0 0.00 0.00 0.00 37 1018.0
20260903205242 86 143 4.0 12.0 0.00 0.00 0.00 35 1018.1
20260903204742 86 134 4.0 14.0 0.00 0.00 0.00 35 1018.1
20260903204241 87 195 3.0 14.0 0.00 0.00 0.00 33 1018.1
20260903203240 87 123 3.0 8.0 0.00 0.00 0.00 33 1018.2
20260903202740 87 149 3.0 7.0 0.00 0.00 0.00 33 1018.1
20260903202240 87 163 4.0 8.0 0.00 0.00 0.00 32 1018.2
20260903201740 87 155 4.0 8.0 0.00 0.00 0.00 32 1018.2
20260903201242 87 122 3.0 9.0 0.00 0.00 0.00 32 1018.2
20260903200740 87 128 4.0 9.0 0.00 0.00 0.00 34 1018.3
20260903200240 86 175 5.0 9.0 0.00 0.00 0.00 33 1018.3
20260903195739 86 173 4.0 9.0 0.00 0.00 0.00 33 1018.4
20260903195238 86 121 5.0 9.0 0.00 0.00 0.00 33 1018.6
20260903194737 86 183 4.0 8.0 0.00 0.00 0.00 34 1018.6
20260903194234 86 187 3.0 9.0 0.00 0.00 0.00 34 1018.6
20260903193734 85 138 5.0 11.0 0.00 0.00 0.00 34 1018.8
20260903193234 85 162 4.0 11.0 0.00 0.00 0.00 34 1018.8
20260903192734 85 167 4.0 9.0 0.00 0.00 0.00 34 1018.9
20260903192234 85 146 4.0 9.0 0.00 0.00 0.00 34 1019.0
20260903191734 85 125 3.0 9.0 0.00 0.00 0.00 33 1018.9
20260903191235 85 205 3.0 9.0 0.00 0.00 0.00 34 1019.1
20260903190234 85 192 4.0 8.0 0.00 0.00 0.00 35 1019.1
20260903185733 85 192 4.0 9.0 0.00 0.00 0.00 35 1019.2
20260903185232 85 142 4.0 13.0 0.00 0.00 0.00 35 1019.2
20260903184730 85 110 4.0 13.0 0.00 0.00 0.00 32 1019.4
20260903184230 86 155 2.0 8.0 0.00 0.00 0.00 34 1019.4
20260903183724 85 157 2.0 6.0 0.00 0.00 0.00 35 1019.4
20260903183224 85 141 3.0 6.0 0.00 0.00 0.00 35 1019.6
20260903182725 84 173 3.0 9.0 0.00 0.00 0.00 36 1019.8
20260903182223 84 169 3.0 9.0 0.00 0.00 0.00 34 1019.9
20260903181221 84 169 3.0 9.0 0.00 0.00 0.00 35 1020.1
20260903175719 84 157 2.0 10.0 0.00 0.00 0.00 36 1020.2
20260903175221 84 101 1.0 11.0 0.00 0.00 0.00 36 1020.2
20260903174712 83 91 2.0 11.0 0.00 0.00 0.00 36 1020.2
20260903174211 83 169 4.0 11.0 0.00 0.00 0.00 36 1020.4
20260903173710 83 165 3.0 11.0 0.00 0.00 0.00 36 1020.4
20260903173211 83 146 3.0 8.0 0.00 0.00 0.00 37 1020.4
20260903172710 82 122 2.0 7.0 0.00 0.00 0.00 36 1020.4
20260903172210 81 151 2.0 8.0 0.00 0.00 0.00 38 1020.2
20260903171708 81 232 3.0 10.0 0.00 0.00 0.00 36 1020.2
20260903171207 81 159 4.0 11.0 0.00 0.00 0.00 38 1020.4
20260903170706 82 175 3.0 11.0 0.00 0.00 0.00 38 1020.4
20260903170206 83 177 1.0 5.0 0.00 0.00 0.00 35 1020.4
20260903165706 82 111 1.0 3.0 0.00 0.00 0.00 39 1020.4
20260903165207 82 113 1.0 4.0 0.00 0.00 0.00 40 1020.2
20260903164706 82 339 1.0 4.0 0.00 0.00 0.00 37 1020.1
20260903164207 82 80 1.0 3.0 0.00 0.00 0.00 40 1020.2
20260903163706 81 115 2.0 5.0 0.00 0.00 0.00 39 1020.2
20260903163205 81 115 2.0 5.0 0.00 0.00 0.00 39 1020.4
20260903162203 80 120 2.0 7.0 0.00 0.00 0.00 39 1020.5
20260903161700 80 123 2.0 7.0 0.00 0.00 0.00 40 1020.5
20260903161202 80 120 1.0 4.0 0.00 0.00 0.00 42 1020.5
20260903160657 79 102 0.0 2.0 0.00 0.00 0.00 41 1020.5
20260903160156 79 69 1.0 2.0 0.00 0.00 0.00 41 1020.5
20260903155156 78 86 0.0 2.0 0.00 0.00 0.00 42 1020.5
20260903154657 78 71 0.0 2.0 0.00 0.00 0.00 41 1020.5
20260903154156 77 36 0.0 2.0 0.00 0.00 0.00 41 1020.5
20260903153656 77 62 0.0 0.0 0.00 0.00 0.00 41 1020.6
20260903153156 77 64 0.0 0.0 0.00 0.00 0.00 42 1020.6
20260903152656 76 20 0.0 0.0 0.00 0.00 0.00 45 1020.5
20260903152157 76 33 0.0 0.0 0.00 0.00 0.00 45 1020.5
20260903151152 75 11 0.0 0.0 0.00 0.00 0.00 46 1020.5
20260903150650 74 11 0.0 0.0 0.00 0.00 0.00 45 1020.6
20260903150150 74 11 0.0 0.0 0.00 0.00 0.00 45 1020.6
20260903145648 74 11 0.0 2.0 0.00 0.00 0.00 46 1020.6
20260903145148 74 11 0.0 2.0 0.00 0.00 0.00 46 1020.6
20260903144145 74 67 0.0 1.0 0.00 0.00 0.00 46 1020.6
20260903142645 72 9 0.0 0.0 0.00 0.00 0.00 46 1020.5
20260903142145 71 9 0.0 0.0 0.00 0.00 0.00 46 1020.5
20260903141142 70 9 0.0 0.0 0.00 0.00 0.00 48 1020.4
20260903140640 70 9 0.0 0.0 0.00 0.00 0.00 46 1020.2
20260903140140 69 9 0.0 0.0 0.00 0.00 0.00 49 1020.2
20260903135640 69 9 0.0 0.0 0.00 0.00 0.00 47 1020.2
20260903134641 68 9 0.0 0.0 0.00 0.00 0.00 47 1020.0
20260903134140 68 9 0.0 0.0 0.00 0.00 0.00 47 1020.0
20260903133640 69 9 0.0 2.0 0.00 0.00 0.00 46 1020.0
20260903133140 69 9 0.0 2.0 0.00 0.00 0.00 46 1019.9
20260903132640 70 207 1.0 3.0 0.00 0.00 0.00 43 1019.8
20260903132141 69 207 2.0 4.0 0.00 0.00 0.00 43 1019.8
20260903131640 69 207 1.0 4.0 0.00 0.00 0.00 43 1019.8
20260903131139 68 222 1.0 3.0 0.00 0.00 0.00 45 1019.7
20260903130137 70 203 1.0 2.0 0.00 0.00 0.00 40 1019.6
20260903125637 71 203 1.0 3.0 0.00 0.00 0.00 39 1019.6
20260903125136 71 203 2.0 4.0 0.00 0.00 0.00 39 1019.6
20260903124636 71 203 2.0 4.0 0.00 0.00 0.00 39 1019.4
20260903124136 71 196 2.0 4.0 0.00 0.00 0.00 39 1019.6
20260903123636 71 196 1.0 3.0 0.00 0.00 0.00 39 1019.4
20260903123136 71 196 1.0 3.0 0.00 0.00 0.00 38 1019.4
20260903122634 70 196 1.0 3.0 0.00 0.00 0.00 39 1019.4
20260903122134 70 196 1.0 3.0 0.00 0.00 0.00 40 1019.4
20260903121628 70 196 1.0 3.0 0.00 0.00 0.00 40 1019.3
20260903120626 71 197 1.0 2.0 0.00 0.00 0.00 39 1019.2
20260903120125 71 197 1.0 2.0 0.00 0.00 0.00 38 1019.2
20260903114621 72 197 1.0 3.0 0.00 0.00 0.00 38 1019.3
20260903114122 71 241 1.0 2.0 0.00 0.00 0.00 38 1019.2
20260903113622 71 241 1.0 2.0 0.00 0.00 0.00 38 1019.2
20260903113123 71 248 0.0 2.0 0.00 0.00 0.00 38 1019.1
20260903112617 71 202 0.0 0.0 0.00 0.00 0.00 39 1019.2
20260903112116 71 200 0.0 0.0 0.00 0.00 0.00 39 1019.2
20260903111615 71 200 0.0 0.0 0.00 0.00 0.00 40 1019.2
20260903111116 71 200 0.0 0.0 0.00 0.00 0.00 38 1019.2
20260903110115 71 200 2.0 4.0 0.00 0.00 0.00 39 1019.3
20260903105612 72 200 2.0 4.0 0.00 0.00 0.00 39 1019.3
20260903105113 72 200 2.0 3.0 0.00 0.00 0.00 38 1019.2
20260903103103 72 200 1.0 4.0 0.00 0.00 0.00 39 1019.4
20260903102559 71 190 1.0 4.0 0.00 0.00 0.00 41 1019.4
20260903102100 70 271 1.0 3.0 0.00 0.00 0.00 43 1019.3
20260903101056 71 254 0.0 0.0 0.00 0.00 0.00 41 1019.4
20260903100556 71 254 0.0 0.0 0.00 0.00 0.00 41 1019.4
20260903095553 70 259 0.0 0.0 0.00 0.00 0.00 43 1019.6
20260903095052 70 259 0.0 1.0 0.00 0.00 0.00 41 1019.6
20260903094550 70 259 1.0 4.0 0.00 0.00 0.00 41 1019.6
20260903094051 70 259 2.0 4.0 0.00 0.00 0.00 41 1019.4
20260903085543 69 306 0.0 0.0 0.00 0.00 0.00 43 1019.6
20260903085042 70 306 0.0 1.0 0.00 0.00 0.00 44 1019.6
20260903084041 70 306 0.0 0.0 0.00 0.00 0.00 40 1019.6
20260903083540 70 306 0.0 0.0 0.00 0.00 0.00 39 1019.6
20260903083040 70 306 0.0 0.0 0.00 0.00 0.00 41 1019.6
20260903082538 70 306 0.0 0.0 0.00 0.00 0.00 40 1019.7
20260903082036 70 306 0.0 0.0 0.00 0.00 0.00 40 1019.7
20260903081035 71 309 0.0 2.0 0.00 0.00 0.00 39 1019.8
20260903080532 71 309 0.0 2.0 0.00 0.00 0.00 38 1019.8
20260903075532 72 275 0.0 0.0 0.00 0.00 0.00 39 1019.7
20260903075030 72 275 0.0 0.0 0.00 0.00 0.00 38 1019.7
20260903074530 71 275 1.0 3.0 0.00 0.00 0.00 37 1019.8
20260903074030 71 275 1.0 3.0 0.00 0.00 0.00 37 1019.8
20260903073527 71 269 1.0 3.0 0.00 0.00 0.00 38 1019.8
20260903073029 71 271 2.0 3.0 0.00 0.00 0.00 37 1019.8
20260903072526 71 270 2.0 4.0 0.00 0.00 0.00 38 1019.8
20260903072025 71 273 1.0 4.0 0.00 0.00 0.00 38 1019.9
20260903071018 71 271 1.0 3.0 0.00 0.00 0.00 40 1019.9
20260903070518 72 271 0.0 3.0 0.00 0.00 0.00 38 1019.9
20260903065515 73 254 0.0 2.0 0.00 0.00 0.00 37 1019.8
20260903065014 73 254 1.0 2.0 0.00 0.00 0.00 35 1019.8
20260903064515 73 192 0.0 2.0 0.00 0.00 0.00 35 1019.9
20260903064013 73 182 0.0 1.0 0.00 0.00 0.00 35 1019.8
20260903063512 73 182 0.0 3.0 0.00 0.00 0.00 35 1019.8
20260903063011 73 182 0.0 3.0 0.00 0.00 0.00 35 1019.8
20260903062509 73 165 0.0 2.0 0.00 0.00 0.00 35 1019.8
20260903062008 73 165 0.0 1.0 0.00 0.00 0.00 34 1019.7
20260903061508 74 165 0.0 1.0 0.00 0.00 0.00 35 1019.8
20260903061008 75 165 0.0 2.0 0.00 0.00 0.00 35 1019.8
20260903060510 75 165 1.0 3.0 0.00 0.00 0.00 34 1019.8
20260903055505 75 207 0.0 1.0 0.00 0.00 0.00 34 1019.8
20260903054001 76 207 2.0 5.0 0.00 0.00 0.00 31 1019.6
20260903053502 77 209 2.0 5.0 0.00 0.00 0.00 31 1019.7
20260903052958 77 189 2.0 7.0 0.00 0.00 0.00 31 1019.7
20260903051954 77 191 3.0 6.0 0.00 0.00 0.00 30 1019.7
20260903051455 77 215 3.0 7.0 0.00 0.00 0.00 31 1019.6
20260903050955 77 191 3.0 7.0 0.00 0.00 0.00 31 1019.7
20260903050455 76 200 2.0 6.0 0.00 0.00 0.00 32 1019.7
20260903045952 77 188 2.0 5.0 0.00 0.00 0.00 34 1019.8
20260903045452 77 216 2.0 5.0 0.00 0.00 0.00 33 1019.8
20260903043953 76 205 2.0 4.0 0.00 0.00 0.00 35 1019.8
20260903043452 76 207 2.0 4.0 0.00 0.00 0.00 35 1019.9
20260903042953 76 206 2.0 3.0 0.00 0.00 0.00 35 1019.8
20260903041948 77 206 2.0 5.0 0.00 0.00 0.00 35 1019.8
20260903041449 76 208 2.0 5.0 0.00 0.00 0.00 36 1019.8
20260903040949 76 193 1.0 4.0 0.00 0.00 0.00 36 1019.8
20260903040449 76 207 1.0 4.0 0.00 0.00 0.00 37 1019.7
20260903035948 76 212 1.0 3.0 0.00 0.00 0.00 37 1019.7
20260903035450 76 205 1.0 3.0 0.00 0.00 0.00 38 1019.7
20260903034448 77 205 1.0 3.0 0.00 0.00 0.00 37 1019.7
20260903033949 76 196 0.0 3.0 0.00 0.00 0.00 37 1019.6
20260903033449 77 196 0.0 0.0 0.00 0.00 0.00 40 1019.6
20260903032948 78 196 0.0 1.0 0.00 0.00 0.00 38 1019.4
20260903032449 78 196 1.0 4.0 0.00 0.00 0.00 38 1019.3
20260903031948 78 196 1.0 4.0 0.00 0.00 0.00 35 1019.1
20260903030449 79 201 2.0 4.0 0.00 0.00 0.00 35 1019.0
20260903025949 79 200 2.0 4.0 0.00 0.00 0.00 35 1019.0
20260903025449 79 209 2.0 4.0 0.00 0.00 0.00 36 1018.9
20260903024449 78 211 2.0 4.0 0.00 0.00 0.00 36 1018.6
20260903023949 78 211 2.0 5.0 0.00 0.00 0.00 37 1018.6
20260903023448 78 158 2.0 5.0 0.00 0.00 0.00 36 1018.5
20260903022949 78 217 2.0 3.0 0.00 0.00 0.00 37 1018.5
20260903022448 78 204 2.0 3.0 0.00 0.00 0.00 37 1018.5
20260903021949 78 204 1.0 3.0 0.00 0.00 0.00 37 1018.4
20260903021449 78 196 1.0 4.0 0.00 0.00 0.00 39 1018.4
20260903020948 79 196 1.0 4.0 0.00 0.00 0.00 37 1018.5
20260903020449 79 200 0.0 3.0 0.00 0.00 0.00 37 1018.5
20260903015948 79 200 0.0 3.0 0.00 0.00 0.00 37 1018.4
20260903015448 80 200 0.0 3.0 0.00 0.00 0.00 37 1018.4
20260903014949 81 200 1.0 4.0 0.00 0.00 0.00 34 1018.4
20260903013949 81 191 3.0 7.0 0.00 0.00 0.00 33 1018.4